Flag for U.S.A. Weather past 2 weeks in Glendale, California, U.S.A.

Now
71 °F

Sunny.


Feels Like: 76 °F
Forecast: 53 / 71 °F
Wind: No wind

Location: Burbank-Glendale-Pasadena Airport

Current Time: Jan 28, 2015 at 1:26:55 PM

Latest Report: Jan 28, 2015 at 12:53 PM


Visibility: 10 mi

Pressure: 30.05 "Hg

Humidity: 31%

Dew point: 39 °F

Location of GlendaleLocation

Historic Weather in Glendale — Graph

°F

Glendale temperature yesterday

Maximum temperature yesterday: 70 °F (at 2:53 PM)
Minimum temperature yesterday: 54 °F (at 1:53 AM)
Average temperature yesterday: 60 °F

Past Weeks' High & Low Weather Summary

 TemperatureHumidityPressure
High81 °F (Jan 24, 2:53 PM)100% (Jan 20, 8:53 AM)30.26 "Hg (Jan 20, 8:53 AM)
Low44 °F (Jan 23, 6:53 AM)10% (Jan 22, 11:53 AM)29.88 "Hg (Jan 20, 1:53 PM)
Average60 °F46%30.08 "Hg
* Reported Jan 13 11:53 AM — Jan 28 11:53 AM, Glendale, Weather by CustomWeather, © 2014

Note: Actual official high and low records may vary slightly from our data, if they occured in-between our weather recording intervals... More about our weather records

Advertising

Glendale weather history for previous 24 hours

 ConditionsComfort  
Time TempWeatherWind HumidityBarometerVisibility
11:53 AM
Jan 28
71 °FSunny.6 mph35%30.06 "Hg10 mi
10:53 AM70 °FSunny.3 mph41%30.10 "Hg10 mi
9:53 AM63 °FSunny.No wind52%30.11 "Hg10 mi
8:53 AM60 °FSunny.No wind49%30.13 "Hg10 mi
7:53 AM54 °FSunny.6 mph67%30.13 "Hg10 mi
6:53 AM54 °FSunny.No wind74%30.12 "Hg10 mi
5:53 AM53 °FClear.3 mph77%30.11 "Hg10 mi
4:53 AM55 °FClear.8 mph59%30.11 "Hg10 mi
3:53 AM55 °FClear.3 mph62%30.12 "Hg10 mi
2:53 AM53 °FClear.No wind74%30.15 "Hg10 mi
1:53 AM53 °FClear.3 mph80%30.16 "Hg10 mi
12:53 AM55 °FClear.No wind69%30.14 "Hg10 mi
11:53 PM
Jan 27
56 °FClear.No wind70%30.14 "Hg10 mi
10:53 PM56 °FClear.No wind70%30.14 "Hg10 mi
9:53 PM57 °FClear.7 mph69%30.14 "Hg10 mi
8:53 PM58 °FClear.5 mph67%30.14 "Hg10 mi
7:53 PM61 °FClear.No wind65%30.15 "Hg10 mi
6:53 PM63 °FClear.No wind52%30.14 "Hg10 mi
5:53 PM64 °FClear.3 mph50%30.12 "Hg10 mi
4:53 PM66 °FSunny.6 mph47%30.11 "Hg10 mi
3:53 PM68 °FSunny.9 mph45%30.12 "Hg10 mi
2:53 PM70 °FScattered clouds.3 mph41%30.11 "Hg10 mi
1:53 PM69 °FScattered clouds.8 mph42%30.11 "Hg10 mi
Weather by CustomWeather, © 2014

See weather overviewHow to use our weather pages